Weather History for KAIA - March, 2013

Change the Weather History Date:

Wednesday, March 6, 2013

  Actual Average Record
Temperature  
Mean Temperature 34 °F 33 °F  
Max Temperature 50 °F 48 °F 73 °F (1972)
Min Temperature 18 °F 18 °F -23 °F (1943)
Degree Days  
Heating Degree Days 31 32  
Month to date heating degree days 173 197  
Since 1 July heating degree days 5286 5601  
Cooling Degree Days 0 0  
Month to date cooling degree days 0 0  
Year to date cooling degree days 0 0  
Moisture  
Dew Point 19 °F    
Average Humidity 57    
Maximum Humidity 81    
Minimum Humidity 33    
Precipitation  
Precipitation 0.00 in 0.01 in 0.49 in (1917)
Month to date precipitation 0.00 0.05  
Year to date precipitation 0.52 0.61  
Sea Level Pressure  
Sea Level Pressure 30.05 in    
Wind  
Wind Speed 16 mph (SSE)    
Max Wind Speed 26 mph    
Max Gust Speed 32 mph    
Visibility 10 miles    
Events      
T = Trace of Precipitation, MM = Missing Value Source: NWS Daily Summary

Daily Weather History Graph

Daily Weather History Graph

Search for Another Location

Airport or City:

Trip Planner

Search our weather history database for the weather conditions in past years. The results will help you decide how hot, cold, wet, or windy it might be!

Date:

Astronomy

Mar. 06, 2013 Rise Set
Actual Time 6:17 AM MST 5:47 PM MST
Civil Twilight 5:49 AM MST 6:15 PM MST
Nautical Twilight 5:17 AM MST 6:47 PM MST
Astronomical Twilight 4:45 AM MST 7:20 PM MST
Moon 2:33 AM MST (3/6) 12:27 PM MST (3/6)
Length of Visible Light 12h 25m
Length of Day
11h 29m
Waning Crescent, 29% of the Moon is Illuminated
Mar 6
Waning Crescent
Mar 11
New
Mar 19
First Quarter
Mar 27
Full
Apr 2
Last Quarter

Hourly Weather History & Observations

Time (MST) Temp. Windchill Dew Point Humidity Pressure Visibility Wind Dir Wind Speed Gust Speed Precip Events Conditions
12:53 AM 19.9 °F 6.7 °F 12.9 °F 74% 30.25 in 10.0 mi SSE 13.8 mph - N/A   Clear
1:53 AM 19.0 °F 6.8 °F 12.9 °F 77% 30.23 in 10.0 mi SSE 11.5 mph - N/A   Clear
2:53 AM 19.0 °F 6.1 °F 12.9 °F 77% 30.19 in 10.0 mi SE 12.7 mph - N/A   Clear
3:53 AM 18.0 °F 6.1 °F 12.9 °F 81% 30.19 in 10.0 mi SSE 10.4 mph - N/A   Clear
4:53 AM 17.6 °F 3.2 °F 12.2 °F 79% 30.09 in 10.0 mi SSE 15.0 mph - N/A   Clear
5:53 AM 18.0 °F 6.9 °F 12.9 °F 81% 30.21 in 10.0 mi SSE 9.2 mph - N/A   Clear
6:53 AM 19.9 °F 6.2 °F 14.0 °F 78% 30.18 in 10.0 mi SSE 15.0 mph - N/A   Clear
7:53 AM 25.0 °F 12.2 °F 16.0 °F 69% 30.17 in 10.0 mi SSE 16.1 mph - N/A   Clear
8:53 AM 30.9 °F 18.7 °F 16.0 °F 54% 30.14 in 10.0 mi South 19.6 mph 26.5 mph N/A   Clear
9:53 AM 35.1 °F 23.8 °F 17.1 °F 48% 30.11 in 10.0 mi South 20.7 mph 27.6 mph N/A   Clear
10:53 AM 41.0 °F 32.5 °F 18.0 °F 40% 30.06 in 10.0 mi South 17.3 mph 26.5 mph N/A   Clear
11:53 AM 44.1 °F 36.2 °F 18.0 °F 35% 30.04 in 10.0 mi SSE 18.4 mph - N/A   Clear
12:53 PM 46.0 °F 38.0 °F 19.9 °F 35% 29.99 in 10.0 mi South 21.9 mph 28.8 mph N/A   Clear
1:53 PM 48.9 °F - 21.0 °F 33% 29.95 in 10.0 mi SSE 21.9 mph 27.6 mph N/A   Clear
2:53 PM 48.9 °F - 21.9 °F 35% 29.93 in 10.0 mi SSE 25.3 mph 32.2 mph N/A   Clear
3:53 PM 48.9 °F - 23.0 °F 36% 29.91 in 10.0 mi SSE 21.9 mph 28.8 mph N/A   Clear
4:53 PM 45.0 °F 37.1 °F 24.1 °F 44% 29.93 in 10.0 mi SSE 19.6 mph 26.5 mph N/A   Clear
5:53 PM 41.0 °F 34.3 °F 25.0 °F 53% 29.94 in 10.0 mi SSE 11.5 mph - N/A   Clear
6:53 PM 37.9 °F 29.2 °F 24.1 °F 57% 29.95 in 10.0 mi SSE 15.0 mph - N/A   Clear
7:53 PM 34.0 °F 25.0 °F 24.1 °F 67% 29.94 in 10.0 mi SSE 12.7 mph - N/A   Clear
8:53 PM 32.0 °F 21.6 °F 24.1 °F 73% 29.93 in 10.0 mi SSE 15.0 mph 23.0 mph N/A   Clear
9:53 PM 30.0 °F 19.5 °F 23.0 °F 75% 29.93 in 10.0 mi SSE 13.8 mph - N/A   Clear
10:53 PM 26.1 °F 15.6 °F 21.9 °F 84% 29.93 in 10.0 mi SSE 11.5 mph - N/A   Clear
11:53 PM 26.1 °F 17.6 °F 21.9 °F 84% 29.92 in 10.0 mi South 8.1 mph - N/A   Clear